Weather History for Camp Pendleton, CA

Change the Weather History Date:

Friday, November 18, 2011

  Actual Average Record
Temperature  
Mean Temperature 56 °F -  
Max Temperature 62 °F 68 °F 90 °F (2005)
Min Temperature 50 °F 41 °F 30 °F (2000)
Degree Days  
Heating Degree Days 9    
Growing Degree Days 6 (Base 50)    
Moisture  
Dew Point 50 °F    
Average Humidity 80    
Maximum Humidity 88    
Minimum Humidity 62    
Precipitation  
Precipitation 0.00 in - - ()
Sea Level Pressure  
Sea Level Pressure 29.96 in    
Wind  
Wind Speed 2 mph (ENE)    
Max Wind Speed 6 mph    
Max Gust Speed -    
Visibility 6 miles    
Events      
Averages and records for this station are not official NWS values.
T = Trace of Precipitation, MM = Missing Value Source: NWS Daily Summary

Daily Weather History Graph

Daily Weather History Graph

Search for Another Location

Airport:

Trip Planner

Search our weather history database for the weather conditions in past years. The results will help you decide how hot, cold, wet, or windy it might be!

Date:

Astronomy

Nov. 18, 2011 Rise Set
Actual Time 6:23 AM PST 4:45 PM PST
Civil Twilight 5:56 AM PST 5:12 PM PST
Nautical Twilight 5:26 AM PST 5:42 PM PST
Astronomical Twilight 4:57 AM PST 6:11 PM PST
Moon No Moon Rise 12:14 PM PST (11/18)
Length of Visible Light 11h 15m
Length of Day
10h 22m
Waning Gibbous, 48% of the Moon is Illuminated
Nov 18
Waning Gibbous
Nov 24
New
Dec 2
First Quarter
Dec 10
Full
Dec 17
Last Quarter

Hourly Weather History & Observations

Time (PST) Temp. Dew Point Humidity Pressure Visibility Wind Dir Wind Speed Gust Speed Precip Events Conditions
12:54 AM 55.9 °F 51.1 °F 84% 30.01 in 2.0 mi Calm Calm - N/A   Overcast
1:01 AM 55.4 °F 51.8 °F 88% 30.01 in 3.0 mi Calm Calm - N/A   Overcast
1:54 AM 55.9 °F 51.1 °F 84% 30.00 in 3.0 mi North 3.5 mph - N/A   Overcast
2:54 AM 55.9 °F 51.1 °F 84% 29.98 in 3.0 mi ESE 4.6 mph - N/A   Overcast
3:54 AM 55.0 °F 50.0 °F 83% 29.96 in 4.0 mi ENE 3.5 mph - N/A   Overcast
4:54 AM 55.0 °F 50.0 °F 83% 29.97 in 4.0 mi Calm Calm - N/A   Overcast
5:29 AM 55.4 °F 50.0 °F 82% 29.97 in 4.0 mi ENE 3.5 mph - N/A   Overcast
5:54 AM 55.0 °F 50.0 °F 83% 29.98 in 4.0 mi Calm Calm - N/A   Overcast
6:54 AM 55.0 °F 50.0 °F 83% 29.98 in 2.0 mi ENE 3.5 mph - N/A   Overcast
7:54 AM 55.9 °F 50.0 °F 80% 29.99 in 2.0 mi NNE 5.8 mph - N/A   Overcast
8:01 AM 55.4 °F 50.0 °F 82% 29.99 in 3.0 mi NNE 4.6 mph - N/A   Overcast
8:54 AM 57.0 °F 50.0 °F 77% 30.00 in 4.0 mi Calm Calm - N/A   Haze
9:54 AM 57.0 °F 50.0 °F 77% 30.01 in 4.0 mi Calm Calm - N/A   Haze
10:54 AM 59.0 °F 50.0 °F 72% 29.99 in 4.0 mi Variable 3.5 mph - N/A   Haze
11:54 AM 59.0 °F 50.0 °F 72% 29.97 in 5.0 mi Calm Calm - N/A   Haze
12:54 PM 61.0 °F 50.0 °F 67% 29.96 in 6.0 mi Calm Calm - N/A   Haze
1:54 PM 62.1 °F 48.9 °F 62% 29.94 in 10.0 mi South 4.6 mph - N/A   Mostly Cloudy
2:54 PM 62.1 °F 50.0 °F 65% 29.93 in 10.0 mi SW 5.8 mph - N/A   Mostly Cloudy
3:54 PM 60.1 °F 51.1 °F 72% 29.93 in 10.0 mi SW 5.8 mph - N/A   Mostly Cloudy
4:54 PM 59.0 °F 50.0 °F 72% 29.93 in 10.0 mi SSW 3.5 mph - N/A   Mostly Cloudy
5:54 PM 55.0 °F 48.9 °F 80% 29.92 in 10.0 mi Calm Calm - N/A   Mostly Cloudy
6:54 PM 55.0 °F 50.0 °F 83% 29.94 in 10.0 mi Calm Calm - N/A   Overcast
7:54 PM 55.9 °F 50.0 °F 80% 29.95 in 10.0 mi Calm Calm - N/A   Overcast
8:04 PM 55.4 °F 50.0 °F 82% 29.95 in 10.0 mi Calm Calm - N/A   Overcast
8:17 PM 55.4 °F 50.0 °F 82% 29.95 in 10.0 mi Calm Calm - N/A   Overcast
8:41 PM 53.6 °F 48.2 °F 82% 29.95 in 10.0 mi Calm Calm - N/A   Mostly Cloudy
8:54 PM 53.1 °F 48.0 °F 83% 29.94 in 9.0 mi Calm Calm - N/A   Partly Cloudy
9:54 PM 50.0 °F 46.0 °F 86% 29.95 in 7.0 mi NE 3.5 mph - N/A   Clear
10:54 PM 52.0 °F 48.0 °F 86% 29.94 in 8.0 mi Calm Calm - N/A   Overcast
11:24 PM 51.8 °F 48.2 °F 88% 29.93 in 8.0 mi Calm Calm - N/A   Overcast
11:54 PM 52.0 °F 48.0 °F 86% 29.94 in 8.0 mi Calm Calm - N/A   Overcast